Year,Month,Day,Hour,Minute,Value (Times are PST for temperature in C)
2017,02,18,10,30,4.90
2017,02,18,10,31,4.90
2017,02,18,10,32,4.80
2017,02,18,10,33,4.80
2017,02,18,10,34,4.80
2017,02,18,10,35,4.80
2017,02,18,10,36,4.90
2017,02,18,10,37,4.90
2017,02,18,10,38,4.90
2017,02,18,10,39,4.90
2017,02,18,10,40,4.90
2017,02,18,10,41,4.90
2017,02,18,10,42,5.00
2017,02,18,10,43,5.00
2017,02,18,10,44,5.00
2017,02,18,10,45,5.00
2017,02,18,10,46,5.10
2017,02,18,10,47,5.10
2017,02,18,10,48,5.10
2017,02,18,10,49,5.10
2017,02,18,10,50,5.10
2017,02,18,10,51,5.10
2017,02,18,10,52,5.10
2017,02,18,10,53,5.10
2017,02,18,10,54,5.10
2017,02,18,10,55,5.10
2017,02,18,10,56,5.10
2017,02,18,10,57,5.10
2017,02,18,10,58,5.10
2017,02,18,10,59,5.10
2017,02,18,11,00,5.10
2017,02,18,11,01,5.10
2017,02,18,11,02,5.10
2017,02,18,11,03,5.10
2017,02,18,11,04,5.10
2017,02,18,11,05,5.10
2017,02,18,11,06,5.10
2017,02,18,11,07,5.10
2017,02,18,11,08,5.10
2017,02,18,11,09,5.10
2017,02,18,11,10,5.10
2017,02,18,11,11,5.10
2017,02,18,11,12,5.00
2017,02,18,11,13,5.00
2017,02,18,11,14,5.00
2017,02,18,11,15,5.00
2017,02,18,11,16,5.00
2017,02,18,11,17,5.00
2017,02,18,11,18,5.00
2017,02,18,11,19,4.90
2017,02,18,11,20,4.90
2017,02,18,11,21,4.90
2017,02,18,11,22,4.90
2017,02,18,11,23,4.90
2017,02,18,11,24,4.90
2017,02,18,11,25,4.90
2017,02,18,11,26,4.90
2017,02,18,11,27,4.90
2017,02,18,11,28,4.90
2017,02,18,11,29,4.90
2017,02,18,11,30,4.90
2017,02,18,11,31,4.90
2017,02,18,11,32,4.90
2017,02,18,11,33,4.90
2017,02,18,11,34,4.90
2017,02,18,11,35,4.90
2017,02,18,11,36,4.90
2017,02,18,11,37,4.90
2017,02,18,11,38,4.90
2017,02,18,11,39,4.90
2017,02,18,11,40,4.90
2017,02,18,11,41,4.90
2017,02,18,11,42,5.00
2017,02,18,11,43,5.00
2017,02,18,11,44,5.00
2017,02,18,11,45,5.00
2017,02,18,11,46,5.10
2017,02,18,11,47,5.10
2017,02,18,11,48,5.10
2017,02,18,11,49,5.10
2017,02,18,11,50,5.10
2017,02,18,11,51,5.10
2017,02,18,11,52,5.10
2017,02,18,11,53,5.10
2017,02,18,11,54,5.10
2017,02,18,11,55,5.10
2017,02,18,11,56,5.10
2017,02,18,11,57,5.10
2017,02,18,11,58,5.10
2017,02,18,11,59,5.10
2017,02,18,12,00,5.10
2017,02,18,12,01,5.10
2017,02,18,12,02,5.10
2017,02,18,12,03,5.10
2017,02,18,12,04,5.10
2017,02,18,12,05,5.10
2017,02,18,12,06,5.10
2017,02,18,12,07,5.20
2017,02,18,12,08,5.20
2017,02,18,12,09,5.20
2017,02,18,12,10,5.20
2017,02,18,12,11,5.30
2017,02,18,12,12,5.30
2017,02,18,12,13,5.40
2017,02,18,12,14,5.40
2017,02,18,12,15,5.40
2017,02,18,12,16,5.40
2017,02,18,12,17,5.40
2017,02,18,12,18,5.40
2017,02,18,12,19,5.50
2017,02,18,12,20,5.50
2017,02,18,12,21,5.50
2017,02,18,12,22,5.60
2017,02,18,12,23,5.60
2017,02,18,12,24,5.60
2017,02,18,12,25,5.60
2017,02,18,12,26,5.60
2017,02,18,12,27,5.60
2017,02,18,12,28,5.60
2017,02,18,12,29,5.60
2017,02,18,12,30,5.60
2017,02,18,12,31,5.60
2017,02,18,12,32,5.60
2017,02,18,12,33,5.60
2017,02,18,12,34,5.70
2017,02,18,12,35,5.70
2017,02,18,12,36,5.70
2017,02,18,12,37,5.70
2017,02,18,12,38,5.70
2017,02,18,12,39,5.80
2017,02,18,12,40,5.80
2017,02,18,12,41,5.80
2017,02,18,12,42,5.90
2017,02,18,12,43,5.90
2017,02,18,12,44,5.90
2017,02,18,12,45,5.90
2017,02,18,12,46,5.90
2017,02,18,12,47,5.80
2017,02,18,12,48,5.80
2017,02,18,12,49,5.80
2017,02,18,12,50,5.80
2017,02,18,12,51,5.80
2017,02,18,12,52,5.90
2017,02,18,12,53,5.90
2017,02,18,12,54,6.00
2017,02,18,12,55,6.00
2017,02,18,12,56,6.10
2017,02,18,12,57,6.20
2017,02,18,12,58,6.20
2017,02,18,12,59,6.30
2017,02,18,13,00,6.20
2017,02,18,13,01,6.20
2017,02,18,13,02,6.20
2017,02,18,13,03,6.20
2017,02,18,13,04,6.20
2017,02,18,13,05,6.20
2017,02,18,13,06,6.10
2017,02,18,13,07,6.10
2017,02,18,13,08,6.10
2017,02,18,13,09,6.10
2017,02,18,13,10,6.10
2017,02,18,13,11,6.10
2017,02,18,13,12,6.10
2017,02,18,13,13,6.10
2017,02,18,13,14,6.10
2017,02,18,13,15,6.20
2017,02,18,13,16,6.20
2017,02,18,13,17,6.20
2017,02,18,13,18,6.20
2017,02,18,13,19,6.20
2017,02,18,13,20,6.20
2017,02,18,13,21,6.20
2017,02,18,13,22,6.20
2017,02,18,13,23,6.20
2017,02,18,13,24,6.20
2017,02,18,13,25,6.20
2017,02,18,13,26,6.20
2017,02,18,13,27,6.20
2017,02,18,13,28,6.20
2017,02,18,13,29,6.20
2017,02,18,13,30,6.20
2017,02,18,13,31,6.20
2017,02,18,13,32,6.10
2017,02,18,13,33,6.10
2017,02,18,13,34,6.10
2017,02,18,13,35,6.10
2017,02,18,13,36,6.10
2017,02,18,13,37,6.10
2017,02,18,13,38,6.10
2017,02,18,13,39,6.10
2017,02,18,13,40,6.00
2017,02,18,13,41,6.00
2017,02,18,13,42,6.10
2017,02,18,13,43,6.10
2017,02,18,13,44,6.10
2017,02,18,13,45,6.10
2017,02,18,13,46,6.10
2017,02,18,13,47,6.10
2017,02,18,13,48,6.10
2017,02,18,13,49,6.20
2017,02,18,13,50,6.20
2017,02,18,13,51,6.20
2017,02,18,13,52,6.20
2017,02,18,13,53,6.20
2017,02,18,13,54,6.30
2017,02,18,13,55,6.30
2017,02,18,13,56,6.30
2017,02,18,13,57,6.30
2017,02,18,13,58,6.40
2017,02,18,13,59,6.40
2017,02,18,14,00,6.40
2017,02,18,14,01,6.40
2017,02,18,14,02,6.40
2017,02,18,14,03,6.40
2017,02,18,14,04,6.40
2017,02,18,14,05,6.40
2017,02,18,14,06,6.40
2017,02,18,14,07,6.40
2017,02,18,14,08,6.50
2017,02,18,14,09,6.50
2017,02,18,14,10,6.50
2017,02,18,14,11,6.60
2017,02,18,14,12,6.60
2017,02,18,14,13,6.60
2017,02,18,14,14,6.70
2017,02,18,14,15,6.70
2017,02,18,14,16,6.70
2017,02,18,14,17,6.70
2017,02,18,14,18,6.70
2017,02,18,14,19,6.70
2017,02,18,14,20,6.70
2017,02,18,14,21,6.70
2017,02,18,14,22,6.70
2017,02,18,14,23,6.70
2017,02,18,14,24,6.70
2017,02,18,14,25,6.70
2017,02,18,14,26,6.70
2017,02,18,14,27,6.70
2017,02,18,14,43,6.50
2017,02,18,14,44,6.50
2017,02,18,14,45,6.50
2017,02,18,14,46,6.50
2017,02,18,14,47,6.50
2017,02,18,14,48,6.50
2017,02,18,14,49,6.50
2017,02,18,14,50,6.50
2017,02,18,14,51,6.50
2017,02,18,14,52,6.50
2017,02,18,14,53,6.60
2017,02,18,14,54,6.60
2017,02,18,14,55,6.60
2017,02,18,14,56,6.60
2017,02,18,14,57,6.60
2017,02,18,14,58,6.60
2017,02,18,14,59,6.60
2017,02,18,15,00,6.60
2017,02,18,15,01,6.60
2017,02,18,15,02,6.60
2017,02,18,15,03,6.70
2017,02,18,15,04,6.70
2017,02,18,15,05,6.70
2017,02,18,15,06,6.70
2017,02,18,15,07,6.70
2017,02,18,15,08,6.70
2017,02,18,15,09,6.70
2017,02,18,15,10,6.70
2017,02,18,15,11,6.70
2017,02,18,15,12,6.70
2017,02,18,15,13,6.70
2017,02,18,15,14,6.70
2017,02,18,15,15,6.70
2017,02,18,15,16,6.70
2017,02,18,15,17,6.70
2017,02,18,15,18,6.70
2017,02,18,15,19,6.70
2017,02,18,15,20,6.70
2017,02,18,15,21,6.70
